Tracking 20383 objects as of 24-Feb-2020
HD Live streaming from Space Station
objects crossing your sky now
Track the group of recently launched Starlink satellites

SL-14 DEB

Track SL-14 DEB now!
10-day predictions


NORAD ID: 19295
Int'l Code: 1978-100AE
Perigee: 1,270.3 km
Apogee: 2,054.7 km
Inclination: 82.0 °
Period: 119.4 minutes
Semi major axis: 8033 km
RCS: 0.0582 m2 (small)
Launch date: October 26, 1978
Source: Commonwealth of Independent States (former USSR) (CIS)
Launch site: PLESETSK MISSILE AND SPACE COMPLEX (PKMTR)

Note: This is SATELLITE DEBRIS
aabbcc
Your satellite tracking list
Your tracking list is empty




NASA's NSSDC Master Catalog

Two Line Element Set (TLE):
1 19295U 78100AE  20054.29829003 -.00000546 +00000-0 -44751-2 0  9996
2 19295 081.9965 000.0474 0488185 225.1098 294.0339 12.05714490395125
Source of the keplerian elements: AFSPC